Regional Weather Roundup
Issued by NWS Sterling, VA

Home | Current Version | Previous Version | Text Only | Print | Product List | Glossary On
Versions: 1 2 3 4 5 6 7 8 9 10 11 12 13 14 15 16 17 18 19 20 21 22 23 24 25 26 27 28 29 30 31 32 33 34 35 36 37 38 39 40 41 42 43 44 45 46 47 48 49 50
000
ASUS41 KLWX 190310
RWRLWX

REGIONAL WEATHER ROUNDUP
NATIONAL WEATHER SERVICE BALTIMORE MD/WASHINGTON DC
1100 PM EDT THU SEP 18 2014

Note: "FAIR" indicates few or no clouds below 12,000 feet
with no significant weather and/or obstructions to visibility.
 TC=TEMPERATURE CELSIUS

 * =Non NWS site. Station does not report precipitation (e.g. rain,
    snow, etc.), thunder, or fog.

DCZ001-MDZ009-015-VAZ040>042-051-053>054-190400-
WASHINGTON METRO

CITY           SKY/WX    TMP DP  RH WIND       PRES   REMARKS
WASHINGTON NAT CLEAR     68  61  78 NE3       30.10R
DULLES         PTCLDY    61  56  83 N3        30.11R
ANDREWS AFB    CLEAR     61  61  99 CALM      30.10R
QUANTICO       CLEAR     64  61  90 NW7       30.10R
COLLEGE PARK*  CLEAR     61  61 100 CALM      30.10R
LEESBURG*      PTCLDY    61  55  82 CALM      30.12R
MANASSAS*      MOCLDY    61  59  94 CALM      30.10R
GAITHERSBURG*  CLEAR     57  55  94 CALM      30.15R

$$

MDZ006>007-011-014-190400-
BALTIMORE METRO

CITY           SKY/WX    TMP DP  RH WIND       PRES   REMARKS
BWI AIRPORT    PTCLDY    59  57  93 CALM      30.10R
MD SCIENCE CTR   N/A     66  60  81 MISG      30.10R
MARTIN STATE   CLEAR     59  59 100 CALM      30.11R FOG
ANNAPOLIS      CLEAR     65  63  93 CALM      30.10R
FORT MEADE*    CLEAR     54  54 100 CALM      30.12R

$$

MDZ012-015-019>023-190400-
MARYLAND EASTERN SHORE

CITY           SKY/WX    TMP DP  RH WIND       PRES   REMARKS
OCEAN CITY     CLEAR     58  54  86 CALM      30.09R
SALISBURY      LGT RAIN  66  57  72 CALM      30.10R
BAY BRIDGE AP*   N/A     63  59  88 CALM      30.10R
CAMBRIDGE*     CLOUDY    63  59  88 CALM      30.09R
EASTON*        FAIR      64  60  85 CALM      30.13

$$

MDZ017>025-190400-
SOUTHERN MARYLAND

CITY           SKY/WX    TMP DP  RH WIND       PRES   REMARKS
PATUXENT RIVER MOCLDY    66  59  78 N6        30.09R
ST INIGOES     MOCLDY    66  55  67 CALM      30.09R
LEONARDTOWN*   CLOUDY    63  55  77 CALM      30.11R

$$

MDZ003>005-190400-
NORTH CENTRAL MARYLAND

CITY           SKY/WX    TMP DP  RH WIND       PRES   REMARKS
FREDERICK*     MOCLDY    57  55  94 CALM      30.14R
HAGERSTOWN APT CLEAR     57  47  69 SE5       30.12R
WESTMINSTER*   CLEAR     61  48  63 CALM      30.12R

$$

MDZ501>502-190400-
WESTERN MARYLAND

CITY           SKY/WX    TMP DP  RH WIND       PRES   REMARKS
OAKLAND*       MOCLDY    52  41  66 CALM      30.17R
CUMBERLAND*    PTCLDY    57  43  58 CALM      30.18R

$$

VAZ025>031-190400-
SHENANDOAH VALLEY

CITY           SKY/WX    TMP DP  RH WIND       PRES   REMARKS
WINCHESTER*    CLEAR     59  48  67 CALM      30.12R
STAUNTON*      CLOUDY    63  56  78 CALM      30.13R

$$

WVZ021-048>050-054>055-190400-
EASTERN WEST VIRGINIA PANHANDLE

CITY           SKY/WX    TMP DP  RH WIND       PRES   REMARKS
MARTINSBURG    CLEAR     58  48  69 CALM      30.12R
PETERSBURG*    PTCLDY    54  51  90 CALM      30.15R

$$

VAZ036>039-050-190400-
CENTRAL FOOTHILLS

CITY           SKY/WX    TMP DP  RH WIND       PRES   REMARKS
CHARLOTTESVILL CLOUDY    64  60  87 CALM      30.10R
ORANGE*        MOCLDY    59  57  94 CALM      30.11R

$$

VAZ055>057-190400-
NORTH AND CENTRAL PIEDMONT

CITY           SKY/WX    TMP DP  RH WIND       PRES   REMARKS
FREDERICKSBRG* PTCLDY    64  64 100 CALM      30.08R
STAFFORD*      FOG       58  58 100 CALM      30.13R VSB 1

$$

NCZ024-NYZ072-PAZ021-071-VAZ022-071-190400-
OTHER REGIONAL OBSERVATIONS

CITY           SKY/WX    TMP DP  RH WIND       PRES   REMARKS
NEW YORK CITY  CLEAR     67  45  45 VRB3      30.11R
PHILADELPHIA   PTCLDY    65  56  72 W6        30.09R
PITTSBURGH     PTCLDY    58  51  78 N10       30.15R
ROANOKE        MOCLDY    68  61  78 E5        30.10R
RICHMOND       MOCLDY    66  60  81 CALM      30.08R
RALEIGH        CLOUDY    72  60  66 SE5       30.06R

$$

ANZ530>537-190400-
MARINE OBSERVATIONS

STATION/POSITION TIME  TEMP    WIND        PRES
                       AIR SEA DIR/SP/G
                 (UTC) (F)     (DEG/KT/KT) (MB)
THOMAS PT LIGHT  0300   70 74  160/  5/  6 1020.0R
BALT KEY BRIDGE  0300   67      40/  5/  5 1018.8S
COVE POINT       0300   68     120/  4/  5 1018.7F
LEWISETTA        0300   67 74  230/  3/  4 1018.2R
SOLOMONS ISLAND  0300      76                N/A
PINEY POINT      0300           20/  7/  8   N/A

$$



USA.gov is the U.S. government's official web portal to all federal, state and local government web resources and services.